User: anonymous   Login
Location: Mentone
(34.5413°N, 85.5351°W)
Time: 12:35:55
(UTC-05:00)
Language:

ERBS - Orbit

View from above orbital plane
View from above orbital plane
View from above satellite
View from above satellite

Ground track
Ground track

The orbit data is extracted from the following two-line orbital elements,

1 15354U 84108B   15152.14113024  .00005531  00000-0  16677-3 0  9993
2 15354 057.0108 098.4480 0018298 117.2797 243.0120 15.35737436683098
Epoch (UTC): 01 June 2015 03:23:13
Eccentricity: 0.0018298
inclination: 57.0108°
perigee height: 446 km
apogee height: 471 km
right ascension of ascending node: 98.4480°
argument of perigee: 117.2797°
revolutions per day: 15.35737436
mean anomaly at epoch: 243.0120°
orbit number at epoch: 68309

The dashed part of the orbit path shows where the satellite is in the earth's shadow,  

DLR